Погода в Скривери

Погода в Скривери : погода сейчас, прогноз погоды и архив. Всё, что Вы хотите узнать о погоде в Скривери!

Поиск расширенной информации на нашем сайте:

Другие новости

Новости СМИ2

Главная страница сайта

Новости сайта

03.07.2017

Напоминаем, что на нашем специализированном сайте Метеоцентр.Азия вы можете получить высокодетализированные автоматические прогнозы погоды по пунктам России, СНГ и мира в авиационном формате (включающие направление и скорость ветра, видимость, явления погоды, количество и форму облачности, нижнюю и верхнюю границу облачности).


Погода в Скривери - сегодня

Время (UTC), дата Ветер
(°,м/с) 
Видим.   Явления Облачность Т
(°С)
Тd
(°С)
f(%) Тe
(°С)
Pmin
(гПа)
dP
(гПа)
Po
(мм)
O2
(г/м3)
Тmin Tmax R s Состояние
почвы
09 10.12.17 180 (Ю) 20000 м    10/10 600 м 
[Sc]
-1.1 -4 81 -3  1000.9  743  300           
12 10.12.17 180 (Ю) 20000 м  в посл. час ливневой снег  10/10 420 м 
[St]
-0.8 -1.7 94 -3  1000.2  -0.7  743  300           
15 10.12.17 170 (Ю) 20000 м    10/10 450 м 
[St]
-0.5 -1.3 94 -1  1000.3  0.1  742  299           
18 10.12.17 160 (Ю) 20000 м    6/0 верхняя 
[Ci fib]
-1.2 -2.3 92 -2  999.8  -0.5  742  300    -0.1  0.0     
21 10.12.17 140 (ЮВ) 20000 м    3/0 верхняя 
[Ci fib]
-2.7 -3 98 -2  1000.1  0.3  742  302           
00 11.12.17 140 (ЮВ) 20000 м    4/0 верхняя 
[Ci fib]
-3.1 -3.2 99 -4  999.6  -0.6  742  303           
03 11.12.17 130 (ЮВ) 20000 м    10/10 330 м 
[St]
-2.1 -2.4 98 -4  998.8  -0.7  741  300           
06 11.12.17 110 (В) 20000 м    6/0 средняя 
[Ac trans]
-2.4 -3.4 93 -5  998.5  -0.3  741  301  -3.4         
09 11.12.17 120 (ЮВ) 20000 м    10/10 600 м 
[Sc]
-1.7 -3.3 89 -5  999  0.5  741  300           
12 11.12.17 130 (ЮВ) 20000 м    10/10 600 м 
[Sc]
-1 -3.6 82 -4  998.3  -0.7  741  300           
15 11.12.17 120 (ЮВ) 20000 м    10/10 540 м 
[St]
-0.9 -3 86 -3  999.3  742  300           
18 11.12.17 130 (ЮВ) 10 км    10/10 330 м 
[St]
-0.3 -2.1 88 -2  1000.4  1.1  743  299    -0.2       
21 11.12.17 130 (ЮВ) 10 км    10/10 330 м 
[St]
+0.2 -1 92 -2  1000.3  742  298           
00 12.12.17 120 (ЮВ) 10 км    10/10 210 м 
[St]
+0.3 -0.3 96 -2  999.3  -1  742  299           
03 12.12.17 120 (ЮВ) 10 км    10/10 300 м 
[St]
+1.2 +0.3 94 -1  997.3  -2  740  296           
06 12.12.17 130 (ЮВ) 5{11}  10 км  слаб. ливневой дождь  10/10 330 м кучево-дожд. 
[Cb cap]
+1.7 +0.9 94 -1  995.1  -2.1  739  295  -0.3    0.1     
12 12.12.17 160 (Ю) 4{10}  10 км  слаб. ливневой дождь  10/10 500 м кучево-дожд. 
[Cb cap]
+3.2 +2.3 94 +1  992.4  -1.9  737  293           
15 12.12.17 200 (Ю) 3{10}  10 км  в посл. час ливневой дождь  8/8 1000 м 
[Sc]
+5 +4.3 95 +4  993.1  0.7  737  290           
18 12.12.17 200 (Ю) 6-11{12}  10 км  {ливн. осадки}  10/10 900 м 
[Sc]
+6.7 +3.9 82 +5  994.2  1.2  738  289    +6.7  0.7     
21 12.12.17 220 (ЮЗ) 5-11{12}  20000 м  {ливн. осадки}  10/10 800 м 
[Sc]
+6 +2 75 +4  995.4  1.1  739  290           
00 13.12.17 220 (ЮЗ) 8-15{16}  20000 м  {ливн. осадки}  10/10 800 м 
[Sc]
+4.3 -0.6 70 +1  996.6  1.1  740  294           
06 13.12.17 250 (З) 4{16}  20000 м  {ливн. осадки}  10/10 570 м 
[Sc]
+1.5 +0 90 -1  1004.7  4.6  746  298  +1.5    0.7     
09 13.12.17 220 (ЮЗ) 20000 м    6/6 700 м 
[Sc]
+1 -0.7 88 -1  1007.5  2.7  748  300           
12 13.12.17 220 (ЮЗ) 20000 м    10/10 600 м 
[Sc]
+1.4 -0.8 85 -1  1007.9  0.4  748  300           
15 13.12.17 210 (ЮЗ) 10 км  в посл. час ливневой дождь  10/10 330 м кучево-дожд. 
[Cb cap]
+1.2 +0.7 96 -1  1008.6  0.7  749  300           
Время (UTC), дата Ветер
(°,м/с) 
Видим.   Явления Облачность Т
(°С)
Тd
(°С)
f(%) Тe
(°С)
Pmin
(гПа)
dP
(гПа)
Po
(мм)
O2
(г/м3)
Тmin Tmax R s Состояние
почвы

Для получения пояснительной информации подведите курсор к названию столбца.

ПОГОДА в Скривери - архив

Всё, что Вы хотите узнать о погоде в Скривери - удобно и подробно!

Выберите нужную дату (начиная с 1 января 2015* года) и нажмите кнопку "Найти".
Будут отображены архивные сводки погоды по пункту Скривери, начиная с указанной даты.


Отображать данные в формате CSV (для использования в таблицах Excel)


Внимание! Наш архив погоды предназначен исключительно для личного некоммерческого использования в познавательных целях. Если Вам необходимы официальные справки о состоянии погоды (для производственных, юридических, коммерческих и т.п. целей), обращайтесь в органы Росгидромета.

*Примечание: данная дата относится к архиву по метеостанциям СССР (Россия, СНГ, Балтия).
Архив по метеостанциям Зарубежной Европы и Азии (кроме Китая) хранится 10 дней, по другим регионам земного шара (Китай, Африка, Америка, Австралия, Океания) - 1 день.

Скривери - район местоположения метеостанции


Название, широта, долгота, высота метеостанции:
Скривери 56.6°ш. 25.1°д. 83 м над ур. моря [Латвия]

Дополнительная информация

В oтличие oт бoльшинства пoгoдных сайтoв мы публикуем пoдрoбную метеoинфoрмацию в детальнoм прoфессиoнальнoм фoрмате.

Характеристики температуры и влажнoсти вoздуха измеряются на высoте 2 м в тени вдали oт зданий и деревьев.
Скoрoсть ветра измеряется на высoте 10 м (на урoвне рoста челoвека скoрoсть ветра ниже в 1.5-2 раза). Если метеoстанция нахoдится в гoрoде или в лесу, тo скoрoсть ветра занижена на 2-4 м/с пo сравнению с oткрытым местoм. Скoрoсть ветра над акватoриями крупных рек и oзёр, а также на вершинах хoлмoв на 2-5 м/с выше, чем в oбычных услoвиях.
Атмoсфернoе давление в разных тoчках местнoсти мoжет значительнo oтличаться oт давления на метеoстанции, в зависимoсти oт услoвий рельефа (при пoдъёме на 10 м давление пoнижается примернo на 1 мм рт.ст.).